"read_dt","SO2 (ppb)","flags","PMT voltage (V)","lamp voltage (V)","lamp intensity (Hz)","internal temp (C)","react chamber temp (C)","sample flow (l/min)","pres (mmHg)","SO2 bkg (ppb)","SO2 coefficient"
2016-11-17 00:00:00,1619E-3,5C000000,-0724,0831,12150,029.2,045.5,0.432,736.6,01.18,0.508
2016-11-17 00:01:00,1685E-3,5C000000,-0724,0831,12162,029.1,045.5,0.433,736.5,01.18,0.508
2016-11-17 00:02:00,1677E-3,5C000000,-0724,0831,12126,029.2,045.5,0.432,736.5,01.18,0.508
2016-11-17 00:03:00,1702E-3,5C000000,-0724,0831,12163,029.2,045.5,0.432,736.4,01.18,0.508
2016-11-17 00:04:00,1544E-3,5C000000,-0724,0831,12115,029.2,045.5,0.432,736.5,01.18,0.508
2016-11-17 00:05:00,1649E-3,5C000000,-0724,0831,12013,029.2,045.5,0.432,736.6,01.18,0.508
2016-11-17 00:06:00,1557E-3,5C000000,-0724,0830,12109,029.2,045.5,0.432,736.6,01.18,0.508
2016-11-17 00:07:00,1714E-3,5C000000,-0724,0831,12095,029.2,045.5,0.432,736.5,01.18,0.508
2016-11-17 00:08:00,1564E-3,5C000000,-0724,0831,12221,029.2,045.5,0.431,736.5,01.18,0.508
2016-11-17 00:09:00,1526E-3,5C000000,-0724,0831,12176,029.2,045.5,0.432,736.2,01.18,0.508
2016-11-17 00:10:00,1568E-3,5C000000,-0724,0831,12078,029.2,045.5,0.432,736.6,01.18,0.508
2016-11-17 00:11:00,1539E-3,5C000000,-0724,0831,12051,029.2,045.5,0.431,736.5,01.18,0.508
2016-11-17 00:12:00,1442E-3,5C000000,-0724,0831,12129,029.2,045.5,0.432,736.3,01.18,0.508
2016-11-17 00:13:00,1551E-3,5C000000,-0724,0831,12168,029.2,045.5,0.432,736.4,01.18,0.508
2016-11-17 00:14:00,1556E-3,5C000000,-0724,0831,12049,029.2,045.5,0.432,736.5,01.18,0.508
2016-11-17 00:15:00,1581E-3,5C000000,-0724,0830,12148,029.3,045.5,0.432,736.5,01.18,0.508
2016-11-17 00:16:00,1597E-3,5C000000,-0724,0831,12071,029.2,045.5,0.431,736.4,01.18,0.508
2016-11-17 00:17:00,1624E-3,5C000000,-0724,0831,12071,029.2,045.5,0.432,736.5,01.18,0.508
2016-11-17 00:18:00,1573E-3,5C000000,-0724,0831,12091,029.2,045.5,0.432,736.5,01.18,0.508
2016-11-17 00:19:00,1560E-3,5C000000,-0724,0831,12196,029.3,045.5,0.431,736.3,01.18,0.508
2016-11-17 00:20:00,1710E-3,5C000000,-0724,0830,12114,029.3,045.5,0.432,736.3,01.18,0.508
2016-11-17 00:21:00,1658E-3,5C000000,-0724,0830,12128,029.2,045.5,0.432,736.3,01.18,0.508
2016-11-17 00:22:00,1519E-3,5C000000,-0724,0830,12089,029.2,045.5,0.432,736.5,01.18,0.508
2016-11-17 00:23:00,1535E-3,5C000000,-0724,0831,12122,029.3,045.5,0.432,736.4,01.18,0.508
2016-11-17 00:24:00,1572E-3,5C000000,-0724,0831,12138,029.3,045.5,0.432,736.2,01.18,0.508
2016-11-17 00:25:00,1586E-3,5C000000,-0724,0832,11985,029.3,045.5,0.432,736.3,01.18,0.508
2016-11-17 00:26:00,1656E-3,5C000000,-0724,0831,12172,029.2,045.5,0.432,736.3,01.18,0.508
2016-11-17 00:27:00,1471E-3,5C000000,-0724,0831,12116,029.3,045.5,0.432,736.3,01.18,0.508
2016-11-17 00:28:00,1600E-3,5C000000,-0724,0831,12167,029.2,045.5,0.432,736.3,01.18,0.508
2016-11-17 00:29:00,1642E-3,5C000000,-0724,0831,12115,029.2,045.5,0.432,736.4,01.18,0.508
2016-11-17 00:30:00,1546E-3,5C000000,-0724,0831,12243,029.2,045.5,0.432,736.3,01.18,0.508
2016-11-17 00:31:00,1573E-3,5C000000,-0724,0831,12267,029.2,045.5,0.432,736.2,01.18,0.508
2016-11-17 00:32:00,1671E-3,5C000000,-0724,0830,11986,029.2,045.5,0.432,736.2,01.18,0.508
2016-11-17 00:33:00,1583E-3,5C000000,-0724,0831,11976,029.2,045.5,0.432,736.4,01.18,0.508
2016-11-17 00:34:00,1604E-3,5C000000,-0724,0830,12061,029.2,045.5,0.432,736.2,01.18,0.508
2016-11-17 00:35:00,1679E-3,5C000000,-0724,0830,12126,029.2,045.5,0.432,736.0,01.18,0.508
2016-11-17 00:36:00,1594E-3,5C000000,-0724,0830,12149,029.2,045.5,0.432,735.9,01.18,0.508
2016-11-17 00:37:00,1734E-3,5C000000,-0724,0831,12066,029.2,045.5,0.432,736.2,01.18,0.508
2016-11-17 00:38:00,1721E-3,5C000000,-0724,0830,12138,029.2,045.5,0.431,736.2,01.18,0.508
2016-11-17 00:39:00,1574E-3,5C000000,-0724,0831,12211,029.3,045.5,0.432,736.0,01.18,0.508
2016-11-17 00:40:00,1511E-3,5C000000,-0724,0830,12036,029.2,045.5,0.432,736.1,01.18,0.508
2016-11-17 00:41:00,1596E-3,5C000000,-0724,0831,12260,029.2,045.5,0.431,736.2,01.18,0.508
2016-11-17 00:42:00,1620E-3,5C000000,-0724,0831,12150,029.2,045.5,0.432,736.1,01.18,0.508
2016-11-17 00:43:00,1471E-3,5C000000,-0724,0830,12155,029.3,045.5,0.431,735.9,01.18,0.508
2016-11-17 00:44:00,1715E-3,5C000000,-0724,0830,12128,029.3,045.5,0.432,736.1,01.18,0.508
2016-11-17 00:45:00,1703E-3,5C000000,-0724,0831,12061,029.3,045.5,0.432,736.1,01.18,0.508
2016-11-17 00:46:00,1573E-3,5C000000,-0724,0831,12041,029.3,045.5,0.431,736.1,01.18,0.508
2016-11-17 00:47:00,1577E-3,5C000000,-0724,0830,12086,029.3,045.5,0.432,736.1,01.18,0.508
2016-11-17 00:48:00,1669E-3,5C000000,-0724,0831,12097,029.3,045.5,0.431,736.1,01.18,0.508
2016-11-17 00:49:00,1618E-3,5C000000,-0724,0831,12171,029.3,045.5,0.432,735.9,01.18,0.508
2016-11-17 00:50:00,1659E-3,5C000000,-0724,0831,12185,029.3,045.5,0.432,736.0,01.18,0.508
2016-11-17 00:51:00,1448E-3,5C000000,-0724,0830,12151,029.2,045.5,0.431,735.9,01.18,0.508
2016-11-17 00:52:00,1641E-3,5C000000,-0724,0831,12083,029.3,045.5,0.432,736.1,01.18,0.508
2016-11-17 00:53:00,1547E-3,5C000000,-0724,0831,12157,029.3,045.5,0.431,735.9,01.18,0.508
2016-11-17 00:54:00,1646E-3,5C000000,-0724,0830,12138,029.2,045.5,0.432,735.9,01.18,0.508
2016-11-17 00:55:00,1517E-3,5C000000,-0724,0831,12177,029.3,045.5,0.432,736.1,01.18,0.508
2016-11-17 00:56:00,1639E-3,5C000000,-0724,0831,12051,029.3,045.5,0.431,736.1,01.18,0.508
2016-11-17 00:57:00,1612E-3,5C000000,-0724,0830,12247,029.3,045.5,0.432,736.1,01.18,0.508
2016-11-17 00:58:00,1522E-3,5C000000,-0724,0831,12143,029.3,045.5,0.431,735.9,01.18,0.508
2016-11-17 00:59:00,1518E-3,5C000000,-0724,0830,12113,029.3,045.5,0.432,735.9,01.18,0.508
2016-11-17 01:00:00,1553E-3,5C000000,-0724,0830,12253,029.3,045.5,0.432,735.9,01.18,0.508
2016-11-17 01:01:00,1642E-3,5C000000,-0724,0830,12134,029.3,045.5,0.431,735.9,01.18,0.508
2016-11-17 01:02:00,1600E-3,5C000000,-0724,0830,12184,029.3,045.5,0.432,736.0,01.18,0.508
2016-11-17 01:03:00,1693E-3,5C000000,-0724,0831,12076,029.3,045.5,0.431,735.9,01.18,0.508
2016-11-17 01:04:00,1605E-3,5C000000,-0724,0832,12133,029.3,045.5,0.432,735.8,01.18,0.508
2016-11-17 01:05:00,1673E-3,5C000000,-0724,0831,12100,029.3,045.5,0.431,735.8,01.18,0.508
2016-11-17 01:06:00,1593E-3,5C000000,-0724,0831,12093,029.3,045.5,0.431,735.9,01.18,0.508
2016-11-17 01:07:00,1619E-3,5C000000,-0724,0831,12208,029.3,045.5,0.432,735.8,01.18,0.508
2016-11-17 01:08:00,1689E-3,5C000000,-0724,0831,12282,029.3,045.5,0.431,735.9,01.18,0.508
2016-11-17 01:09:00,1639E-3,5C000000,-0724,0830,12080,029.3,045.5,0.432,736.0,01.18,0.508
2016-11-17 01:10:00,1661E-3,5C000000,-0724,0831,12165,029.3,045.5,0.431,736.0,01.18,0.508
2016-11-17 01:11:00,1649E-3,5C000000,-0724,0831,12044,029.3,045.5,0.432,735.9,01.18,0.508
2016-11-17 01:12:00,1624E-3,5C000000,-0724,0830,12148,029.3,045.5,0.432,735.8,01.18,0.508
2016-11-17 01:13:00,1578E-3,5C000000,-0724,0831,12176,029.3,045.5,0.431,735.9,01.18,0.508
2016-11-17 01:14:00,1597E-3,5C000000,-0724,0831,12082,029.3,045.5,0.432,735.8,01.18,0.508
2016-11-17 01:15:00,1586E-3,5C000000,-0724,0831,12133,029.3,045.5,0.431,735.8,01.18,0.508
2016-11-17 01:16:00,1582E-3,5C000000,-0724,0832,12165,029.3,045.5,0.432,735.8,01.18,0.508
2016-11-17 01:17:00,1563E-3,5C000000,-0724,0831,12200,029.3,045.5,0.431,735.7,01.18,0.508
2016-11-17 01:18:00,1599E-3,5C000000,-0724,0831,11985,029.3,045.5,0.431,735.7,01.18,0.508
2016-11-17 01:19:00,1671E-3,5C000000,-0724,0831,12254,029.3,045.5,0.432,735.5,01.18,0.508
2016-11-17 01:20:00,1552E-3,5C000000,-0724,0832,12199,029.3,045.5,0.431,735.6,01.18,0.508
2016-11-17 01:21:00,1533E-3,5C000000,-0724,0831,11988,029.3,045.5,0.432,735.4,01.18,0.508
2016-11-17 01:22:00,1524E-3,5C000000,-0724,0832,12267,029.3,045.5,0.431,735.6,01.18,0.508
2016-11-17 01:23:00,1580E-3,5C000000,-0724,0832,12175,029.4,045.5,0.432,735.4,01.18,0.508
2016-11-17 01:24:00,1588E-3,5C000000,-0724,0830,11887,029.3,045.5,0.431,735.3,01.18,0.508
2016-11-17 01:25:00,1593E-3,5C000000,-0724,0831,11979,029.3,045.5,0.431,735.6,01.18,0.508
2016-11-17 01:26:00,1540E-3,5C000000,-0724,0831,12124,029.4,045.5,0.431,735.6,01.18,0.508
2016-11-17 01:27:00,1747E-3,5C000000,-0724,0831,12139,029.4,045.5,0.431,735.3,01.18,0.508
2016-11-17 01:28:00,1573E-3,5C000000,-0724,0831,12021,029.3,045.5,0.432,735.5,01.18,0.508
2016-11-17 01:29:00,1613E-3,5C000000,-0724,0831,12077,029.4,045.5,0.431,735.5,01.18,0.508
2016-11-17 01:30:00,1741E-3,5C000000,-0724,0831,12267,029.3,045.5,0.432,735.4,01.18,0.508
2016-11-17 01:31:00,1640E-3,5C000000,-0724,0831,12172,029.4,045.5,0.431,735.2,01.18,0.508
2016-11-17 01:32:00,1496E-3,5C000000,-0724,0831,12083,029.4,045.5,0.432,735.1,01.18,0.508
2016-11-17 01:33:00,1624E-3,5C000000,-0724,0831,12096,029.4,045.5,0.431,735.4,01.18,0.508
2016-11-17 01:34:00,1573E-3,5C000000,-0724,0830,12188,029.4,045.5,0.432,735.2,01.18,0.508
2016-11-17 01:35:00,1653E-3,5C000000,-0724,0831,12121,029.4,045.5,0.431,735.1,01.18,0.508
2016-11-17 01:36:00,1558E-3,5C000000,-0724,0831,12074,029.4,045.5,0.431,735.4,01.18,0.508
2016-11-17 01:37:00,1644E-3,5C000000,-0724,0830,12144,029.4,045.5,0.431,735.3,01.18,0.508
2016-11-17 01:38:00,1608E-3,5C000000,-0724,0831,12127,029.4,045.5,0.431,735.1,01.18,0.508
2016-11-17 01:39:00,1536E-3,5C000000,-0724,0831,12112,029.3,045.5,0.431,735.5,01.18,0.508
2016-11-17 01:40:00,1605E-3,5C000000,-0724,0831,12071,029.3,045.5,0.431,735.0,01.18,0.508
2016-11-17 01:41:00,1599E-3,5C000000,-0724,0832,12041,029.4,045.5,0.431,735.3,01.18,0.508
2016-11-17 01:42:00,1584E-3,5C000000,-0724,0832,12095,029.4,045.5,0.431,735.2,01.18,0.508
2016-11-17 01:43:00,1731E-3,5C000000,-0724,0831,12152,029.3,045.5,0.431,735.2,01.18,0.508
2016-11-17 01:44:00,1608E-3,5C000000,-0724,0831,12133,029.4,045.5,0.431,735.2,01.18,0.508
2016-11-17 01:45:00,1581E-3,5C000000,-0724,0832,12110,029.4,045.5,0.432,735.3,01.18,0.508
2016-11-17 01:46:00,1520E-3,5C000000,-0724,0830,12109,029.4,045.5,0.431,735.1,01.18,0.508
2016-11-17 01:47:00,1597E-3,5C000000,-0724,0831,11987,029.3,045.5,0.432,735.2,01.18,0.508
2016-11-17 01:48:00,1521E-3,5C000000,-0724,0831,12236,029.4,045.5,0.431,735.1,01.18,0.508
2016-11-17 01:49:00,1553E-3,5C000000,-0724,0832,12067,029.4,045.5,0.432,735.2,01.18,0.508
2016-11-17 01:50:00,1510E-3,5C000000,-0724,0832,12102,029.4,045.5,0.431,735.1,01.18,0.508
2016-11-17 01:51:00,1513E-3,5C000000,-0724,0831,12172,029.4,045.5,0.431,735.0,01.18,0.508
2016-11-17 01:52:00,1653E-3,5C000000,-0724,0830,12143,029.4,045.5,0.431,735.0,01.18,0.508
2016-11-17 01:53:00,1522E-3,5C000000,-0724,0832,12170,029.4,045.5,0.431,735.0,01.18,0.508
2016-11-17 01:54:00,1652E-3,5C000000,-0724,0830,12206,029.4,045.5,0.431,735.1,01.18,0.508
2016-11-17 01:55:00,1662E-3,5C000000,-0724,0831,12083,029.4,045.5,0.431,735.1,01.18,0.508
2016-11-17 01:56:00,1668E-3,5C000000,-0724,0831,12146,029.4,045.5,0.431,734.9,01.18,0.508
2016-11-17 01:57:00,1610E-3,5C000000,-0724,0831,12055,029.5,045.5,0.431,734.7,01.18,0.508
2016-11-17 01:58:00,1557E-3,5C000000,-0724,0831,12189,029.4,045.5,0.431,735.1,01.18,0.508
2016-11-17 01:59:00,1615E-3,5C000000,-0724,0831,12189,029.5,045.5,0.431,734.9,01.18,0.508
2016-11-17 02:00:00,1559E-3,5C000000,-0724,0831,12142,029.5,045.5,0.430,734.9,01.18,0.508
2016-11-17 02:01:00,1595E-3,5C000000,-0724,0831,12117,029.5,045.5,0.431,735.0,01.18,0.508
2016-11-17 02:02:00,1658E-3,5C000000,-0724,0831,12041,029.4,045.5,0.430,734.9,01.18,0.508
2016-11-17 02:03:00,1463E-3,5C000000,-0724,0830,12016,029.5,045.5,0.431,734.8,01.18,0.508
2016-11-17 02:04:00,1619E-3,5C000000,-0724,0831,12017,029.5,045.5,0.431,735.0,01.18,0.508
2016-11-17 02:05:00,1584E-3,5C000000,-0724,0831,12232,029.4,045.5,0.431,734.9,01.18,0.508
2016-11-17 02:06:00,1620E-3,5C000000,-0724,0831,12068,029.5,045.5,0.431,734.9,01.18,0.508
2016-11-17 02:07:00,1661E-3,5C000000,-0724,0830,12110,029.5,045.5,0.431,735.0,01.18,0.508
2016-11-17 02:08:00,1638E-3,5C000000,-0724,0832,12151,029.5,045.5,0.430,734.7,01.18,0.508
2016-11-17 02:09:00,1634E-3,5C000000,-0724,0831,11168,029.5,045.5,0.431,734.9,01.18,0.508
2016-11-17 02:10:00,1603E-3,5C000000,-0724,0831,12099,029.5,045.5,0.431,734.6,01.18,0.508
2016-11-17 02:11:00,1691E-3,5C000000,-0724,0831,12136,029.5,045.5,0.431,735.0,01.18,0.508
2016-11-17 02:12:00,1572E-3,5C000000,-0724,0831,12037,029.6,045.5,0.431,734.9,01.18,0.508
2016-11-17 02:13:00,1646E-3,5C000000,-0724,0832,12095,029.6,045.5,0.431,734.8,01.18,0.508
2016-11-17 02:14:00,1497E-3,5C000000,-0724,0831,12158,029.6,045.5,0.431,734.9,01.18,0.508
2016-11-17 02:15:00,1638E-3,5C000000,-0724,0830,12054,029.6,045.5,0.431,735.0,01.18,0.508
2016-11-17 02:16:00,1624E-3,5C000000,-0724,0830,12070,029.6,045.5,0.430,734.9,01.18,0.508
2016-11-17 02:17:00,1610E-3,5C000000,-0724,0831,12110,029.6,045.5,0.431,734.8,01.18,0.508
2016-11-17 02:18:00,1586E-3,5C000000,-0724,0831,12274,029.6,045.5,0.430,734.7,01.18,0.508
2016-11-17 02:19:00,1506E-3,5C000000,-0724,0831,12050,029.6,045.5,0.431,734.8,01.18,0.508
2016-11-17 02:20:00,1636E-3,5C000000,-0724,0831,12137,029.6,045.5,0.430,734.8,01.18,0.508
2016-11-17 02:21:00,1534E-3,5C000000,-0724,0831,12066,029.6,045.5,0.431,734.5,01.18,0.508
2016-11-17 02:22:00,1767E-3,5C000000,-0724,0830,12192,029.6,045.5,0.430,734.5,01.18,0.508
2016-11-17 02:23:00,1663E-3,5C000000,-0724,0830,12119,029.6,045.5,0.431,734.7,01.18,0.508
2016-11-17 02:24:00,1448E-3,5C000000,-0724,0831,12210,029.6,045.5,0.431,734.7,01.18,0.508
2016-11-17 02:25:00,1661E-3,5C000000,-0724,0831,12058,029.6,045.5,0.431,734.6,01.18,0.508
2016-11-17 02:26:00,1616E-3,5C000000,-0724,0832,12143,029.6,045.5,0.431,734.7,01.18,0.508
2016-11-17 02:27:00,1746E-3,5C000000,-0724,0831,12143,029.6,045.5,0.431,734.4,01.18,0.508
2016-11-17 02:28:00,1489E-3,5C000000,-0724,0830,12143,029.6,045.5,0.431,734.6,01.18,0.508
2016-11-17 02:29:00,1626E-3,5C000000,-0724,0830,12136,029.6,045.5,0.431,734.5,01.18,0.508
2016-11-17 02:30:00,1469E-3,5C000000,-0724,0831,11997,029.6,045.5,0.431,734.4,01.18,0.508
2016-11-17 02:31:00,1653E-3,5C000000,-0724,0831,12052,029.6,045.5,0.430,734.3,01.18,0.508
2016-11-17 02:32:00,1516E-3,5C000000,-0724,0831,12155,029.7,045.5,0.431,734.4,01.18,0.508
2016-11-17 02:33:00,1596E-3,5C000000,-0724,0831,12078,029.7,045.5,0.430,734.5,01.18,0.508
2016-11-17 02:34:00,1541E-3,5C000000,-0724,0832,12117,029.7,045.5,0.431,734.3,01.18,0.508
2016-11-17 02:35:00,1652E-3,5C000000,-0724,0831,12024,029.7,045.5,0.430,734.4,01.18,0.508
2016-11-17 02:36:00,1573E-3,5C000000,-0724,0831,12030,029.7,045.5,0.431,734.6,01.18,0.508
2016-11-17 02:37:00,1609E-3,5C000000,-0724,0832,11940,029.7,045.5,0.430,734.4,01.18,0.508
2016-11-17 02:38:00,1630E-3,5C000000,-0724,0831,12208,029.7,045.5,0.431,734.5,01.18,0.508
2016-11-17 02:39:00,1522E-3,5C000000,-0724,0832,12005,029.8,045.5,0.430,734.3,01.18,0.508
2016-11-17 02:40:00,1586E-3,5C000000,-0724,0831,12189,029.8,045.5,0.430,734.2,01.18,0.508
2016-11-17 02:41:00,1655E-3,5C000000,-0724,0832,12103,029.8,045.5,0.431,734.4,01.18,0.508
2016-11-17 02:42:00,1728E-3,5C000000,-0724,0830,12151,029.8,045.5,0.430,734.3,01.18,0.508
2016-11-17 02:43:00,1630E-3,5C000000,-0724,0831,12107,029.8,045.5,0.431,734.3,01.18,0.508
2016-11-17 02:44:00,1572E-3,5C000000,-0724,0831,12231,029.8,045.5,0.430,734.2,01.18,0.508
2016-11-17 02:45:00,1556E-3,5C000000,-0724,0831,12270,029.8,045.5,0.430,734.3,01.18,0.508
2016-11-17 02:46:00,1555E-3,5C000000,-0724,0831,12112,029.8,045.5,0.430,734.2,01.18,0.508
2016-11-17 02:47:00,1547E-3,5C000000,-0724,0832,12088,029.8,045.5,0.430,734.3,01.18,0.508
2016-11-17 02:48:00,1657E-3,5C000000,-0724,0831,12071,029.8,045.5,0.430,734.0,01.19,0.508
2016-11-17 02:49:00,1585E-3,5C000000,-0724,0831,12260,029.8,045.5,0.430,733.9,01.19,0.508
2016-11-17 02:50:00,1602E-3,5C000000,-0724,0831,12156,029.8,045.5,0.431,734.0,01.19,0.508
2016-11-17 02:51:00,1635E-3,5C000000,-0724,0831,12143,029.8,045.5,0.430,734.2,01.18,0.508
2016-11-17 02:52:00,1570E-3,5C000000,-0724,0832,12043,029.8,045.5,0.430,734.1,01.19,0.508
2016-11-17 02:53:00,1570E-3,5C000000,-0724,0831,12096,029.8,045.5,0.430,733.9,01.19,0.508
2016-11-17 02:54:00,1496E-3,5C000000,-0724,0831,12082,029.8,045.5,0.430,733.7,01.19,0.508
2016-11-17 02:55:00,1556E-3,5C000000,-0724,0832,12189,029.9,045.5,0.430,733.9,01.19,0.508
2016-11-17 02:56:00,1537E-3,5C000000,-0724,0831,12084,029.9,045.5,0.430,734.1,01.19,0.508
2016-11-17 02:57:00,1576E-3,5C000000,-0724,0832,12235,029.9,045.5,0.430,733.9,01.19,0.508
2016-11-17 02:58:00,1589E-3,5C000000,-0724,0831,12120,029.9,045.5,0.430,733.6,01.19,0.508
2016-11-17 02:59:00,1682E-3,5C000000,-0724,0831,12048,029.9,045.5,0.430,733.9,01.19,0.508
2016-11-17 03:00:00,1585E-3,5C000000,-0724,0831,12158,029.9,045.5,0.430,734.0,01.19,0.508
2016-11-17 03:01:00,1581E-3,5C000000,-0724,0831,12038,029.9,045.5,0.430,734.0,01.19,0.508
2016-11-17 03:02:00,1558E-3,5C000000,-0724,0831,12153,029.9,045.5,0.430,733.9,01.19,0.508
2016-11-17 03:03:00,1610E-3,5C000000,-0724,0832,12193,029.9,045.5,0.430,733.8,01.19,0.508
2016-11-17 03:04:00,1582E-3,5C000000,-0724,0831,12102,030.0,045.5,0.430,733.8,01.19,0.508
2016-11-17 03:05:00,1507E-3,5C000000,-0724,0831,12146,030.0,045.5,0.430,733.8,01.19,0.508
2016-11-17 03:06:00,1753E-3,5C000000,-0724,0831,12176,030.0,045.5,0.430,733.5,01.19,0.508
2016-11-17 03:07:00,1597E-3,5C000000,-0724,0831,12147,030.0,045.5,0.430,733.7,01.19,0.508
2016-11-17 03:08:00,1729E-3,5C000000,-0724,0833,12229,030.0,045.5,0.430,734.0,01.19,0.508
2016-11-17 03:09:00,1529E-3,5C000000,-0724,0831,12107,030.0,045.5,0.430,733.6,01.19,0.508
2016-11-17 03:10:00,1705E-3,5C000000,-0724,0831,12156,030.0,045.5,0.430,733.9,01.19,0.508
2016-11-17 03:11:00,1582E-3,5C000000,-0724,0834,12181,030.0,045.5,0.430,734.0,01.19,0.508
2016-11-17 03:12:00,1732E-3,5C000000,-0724,0831,12127,030.0,045.5,0.430,734.0,01.19,0.508
2016-11-17 03:13:00,1663E-3,5C000000,-0724,0832,12062,030.0,045.5,0.429,733.7,01.19,0.508
2016-11-17 03:14:00,1532E-3,5C000000,-0724,0831,12206,030.0,045.5,0.430,733.8,01.19,0.508
2016-11-17 03:15:00,1741E-3,5C000000,-0724,0832,12160,030.0,045.5,0.430,733.7,01.19,0.508
2016-11-17 03:16:00,1578E-3,5C000000,-0724,0832,12129,030.0,045.5,0.430,733.5,01.19,0.508
2016-11-17 03:17:00,1563E-3,5C000000,-0724,0831,12060,030.0,045.5,0.430,733.3,01.19,0.508
2016-11-17 03:18:00,1502E-3,5C000000,-0724,0831,12216,030.0,045.5,0.429,733.7,01.19,0.508
2016-11-17 03:19:00,1631E-3,5C000000,-0724,0831,12148,030.0,045.5,0.430,733.8,01.19,0.508
2016-11-17 03:20:00,1563E-3,5C000000,-0724,0830,12148,030.0,045.5,0.429,733.8,01.19,0.508
2016-11-17 03:21:00,1643E-3,5C000000,-0724,0831,12025,030.0,045.5,0.430,733.6,01.19,0.508
2016-11-17 03:22:00,1554E-3,5C000000,-0724,0832,12222,030.1,045.5,0.430,733.6,01.19,0.508
2016-11-17 03:23:00,1649E-3,5C000000,-0724,0831,12048,030.0,045.5,0.429,733.6,01.19,0.508
2016-11-17 03:24:00,1446E-3,5C000000,-0724,0831,12323,030.0,045.5,0.430,733.7,01.19,0.508
2016-11-17 03:25:00,1582E-3,5C000000,-0724,0831,11986,030.1,045.5,0.429,733.5,01.19,0.508
2016-11-17 03:26:00,1472E-3,5C000000,-0724,0831,12121,030.0,045.5,0.430,733.6,01.19,0.508
2016-11-17 03:27:00,1690E-3,5C000000,-0724,0832,12275,030.1,045.5,0.429,733.5,01.19,0.508
2016-11-17 03:28:00,1601E-3,5C000000,-0724,0831,12156,030.1,045.5,0.429,733.7,01.19,0.508
2016-11-17 03:29:00,1600E-3,5C000000,-0724,0831,12215,030.1,045.5,0.430,733.5,01.19,0.508
2016-11-17 03:30:00,1636E-3,5C000000,-0724,0830,12151,030.1,045.5,0.429,733.4,01.19,0.508
2016-11-17 03:31:00,1595E-3,5C000000,-0724,0831,12120,030.0,045.5,0.430,733.5,01.19,0.508
2016-11-17 03:32:00,1506E-3,5C000000,-0724,0832,12150,030.1,045.5,0.429,733.5,01.19,0.508
2016-11-17 03:33:00,1614E-3,5C000000,-0724,0831,12036,030.1,045.5,0.429,733.3,01.19,0.508
2016-11-17 03:34:00,1576E-3,5C000000,-0724,0831,12188,030.1,045.5,0.430,733.5,01.19,0.508
2016-11-17 03:35:00,1563E-3,5C000000,-0724,0831,12162,030.0,045.5,0.429,733.6,01.19,0.508
2016-11-17 03:36:00,1599E-3,5C000000,-0724,0830,12060,030.1,045.5,0.430,733.5,01.19,0.508
2016-11-17 03:37:00,1494E-3,5C000000,-0724,0831,12178,030.1,045.5,0.430,733.7,01.19,0.508
2016-11-17 03:38:00,1702E-3,5C000000,-0724,0830,12213,030.1,045.5,0.429,733.5,01.19,0.508
2016-11-17 03:39:00,1700E-3,5C000000,-0724,0831,12124,030.1,045.5,0.430,733.2,01.19,0.508
2016-11-17 03:40:00,1557E-3,5C000000,-0724,0831,12180,030.1,045.5,0.429,733.4,01.19,0.508
2016-11-17 03:41:00,1547E-3,5C000000,-0724,0832,12120,030.1,045.5,0.430,733.4,01.19,0.508
2016-11-17 03:42:00,1455E-3,5C000000,-0724,0831,12200,030.0,045.5,0.430,733.5,01.19,0.508
2016-11-17 03:43:00,1553E-3,5C000000,-0724,0831,12053,030.1,045.5,0.429,733.4,01.19,0.508
2016-11-17 03:44:00,1473E-3,5C000000,-0724,0831,12109,030.1,045.5,0.430,733.3,01.19,0.508
2016-11-17 03:45:00,1541E-3,5C000000,-0724,0831,12237,030.1,045.5,0.429,733.4,01.19,0.508
2016-11-17 03:46:00,1638E-3,5C000000,-0724,0832,12177,030.1,045.5,0.429,733.5,01.19,0.508
2016-11-17 03:47:00,1599E-3,5C000000,-0724,0831,11982,030.1,045.5,0.430,733.4,01.19,0.508
2016-11-17 03:48:00,1695E-3,5C000000,-0724,0830,12121,030.1,045.5,0.429,733.5,01.19,0.508
2016-11-17 03:49:00,1602E-3,5C000000,-0724,0831,12045,030.1,045.5,0.430,733.3,01.19,0.508
2016-11-17 03:50:00,1614E-3,5C000000,-0724,0832,12051,030.1,045.5,0.430,733.5,01.19,0.508
2016-11-17 03:51:00,1588E-3,5C000000,-0724,0830,12093,030.1,045.5,0.429,733.5,01.19,0.508
2016-11-17 03:52:00,1558E-3,5C000000,-0724,0831,12098,030.1,045.5,0.430,733.2,01.19,0.508
2016-11-17 03:53:00,1599E-3,5C000000,-0724,0831,12108,030.1,045.5,0.429,733.4,01.19,0.508
2016-11-17 03:54:00,1615E-3,5C000000,-0724,0831,12265,030.1,045.5,0.429,733.1,01.19,0.508
2016-11-17 03:55:00,1605E-3,5C000000,-0724,0832,12017,030.1,045.5,0.430,733.4,01.19,0.508
2016-11-17 03:56:00,1551E-3,5C000000,-0724,0831,12025,030.1,045.5,0.429,733.4,01.19,0.508
2016-11-17 03:57:00,1625E-3,5C000000,-0724,0831,12137,030.1,045.5,0.430,733.2,01.19,0.508
2016-11-17 03:58:00,1542E-3,5C000000,-0724,0831,12079,030.1,045.5,0.429,733.0,01.19,0.508
2016-11-17 03:59:00,1585E-3,5C000000,-0724,0830,12149,030.1,045.5,0.429,733.2,01.19,0.508
2016-11-17 04:00:00,1628E-3,5C000000,-0724,0831,12257,030.1,045.5,0.430,733.1,01.19,0.508
2016-11-17 04:01:00,1562E-3,5C000000,-0724,0831,12096,030.1,045.5,0.429,733.0,01.19,0.508
2016-11-17 04:02:00,1614E-3,5C000000,-0724,0831,11979,030.1,045.5,0.429,733.1,01.19,0.508
2016-11-17 04:03:00,1650E-3,5C000000,-0724,0832,12132,030.1,045.5,0.430,733.1,01.19,0.508
2016-11-17 04:04:00,1523E-3,5C000000,-0724,0832,11997,030.1,045.5,0.429,733.1,01.19,0.508
2016-11-17 04:05:00,1711E-3,5C000000,-0724,0831,12052,030.1,045.5,0.430,733.0,01.19,0.508
2016-11-17 04:06:00,1525E-3,5C000000,-0724,0830,12085,030.2,045.5,0.429,733.1,01.19,0.508
2016-11-17 04:07:00,1574E-3,5C000000,-0724,0832,12078,030.2,045.5,0.429,732.9,01.19,0.508
2016-11-17 04:08:00,1628E-3,5C000000,-0724,0831,12075,030.2,045.5,0.430,733.0,01.19,0.508
2016-11-17 04:09:00,1549E-3,5C000000,-0724,0831,11933,030.2,045.5,0.429,733.1,01.19,0.508
2016-11-17 04:10:00,1605E-3,5C000000,-0724,0831,12239,030.2,045.5,0.429,733.1,01.19,0.508
2016-11-17 04:11:00,1644E-3,5C000000,-0724,0830,12011,030.2,045.5,0.430,733.1,01.19,0.508
2016-11-17 04:12:00,1622E-3,5C000000,-0724,0830,12100,030.2,045.5,0.429,732.8,01.19,0.508
2016-11-17 04:13:00,1587E-3,5C000000,-0724,0830,12078,030.2,045.5,0.429,733.0,01.19,0.508
2016-11-17 04:14:00,1493E-3,5C000000,-0724,0831,12169,030.2,045.5,0.430,732.8,01.19,0.508
2016-11-17 04:15:00,1547E-3,5C000000,-0724,0831,12145,030.2,045.5,0.429,732.9,01.19,0.508
2016-11-17 04:16:00,1628E-3,5C000000,-0724,0831,12176,030.1,045.5,0.429,732.6,01.19,0.508
2016-11-17 04:17:00,1666E-3,5C000000,-0724,0831,12098,030.2,045.5,0.429,732.4,01.19,0.508
2016-11-17 04:18:00,1655E-3,5C000000,-0724,0831,12107,030.2,045.5,0.429,732.4,01.19,0.508
2016-11-17 04:19:00,1530E-3,5C000000,-0724,0831,12028,030.2,045.5,0.429,732.7,01.19,0.508
2016-11-17 04:20:00,1684E-3,5C000000,-0724,0831,12129,030.2,045.5,0.430,732.7,01.19,0.508